This demonstration page uses our WeatherBlox Daily Observations layout. Learn more.

Left ArrowRight Arrow

Hourly Observations for July 15, 2020

Temp ( °F °C ) Dew Point ( °F °C ) Humidity (%) Winds ( mph kmh ) Pressure ( in mb ) Visibility ( mi km ) Precip ( " mm )
12:54 am 00:54 Mostly Cloudy 70 21.1 58 14.4 66 66 NNE 12 19 29.95 1014 10 16.0934 0 0
1:54 am 01:54 Mostly Cloudy 68 20 57 13.9 68 68 NNE 10 17 29.89 1012 10 16.0934 0 0
2:54 am 02:54 Mostly Cloudy 68 20 56 13.3 65 65 NNE 9 15 29.92 1013 10 16.0934 0 0
3:54 am 03:54 Mostly Cloudy 68 20 55 12.8 63 63 N 12 19 29.91 1013 10 16.0934 0 0
4:54 am 04:54 Partly Cloudy 68 20 55 12.8 63 63 NE 9 15 29.91 1013 10 16.0934 0 0
5:54 am 05:54 Cloudy 67 19.4 57 13.9 71 71 NE 9 15 29.91 1013 10 16.0934 0.001 0.001
6:14 am 06:14 Cloudy with Light Rain 67 19.4 57 13.9 71 71 NNE 8 13 29.92 1013 10 16.0934 0.001 0.001
6:40 am 06:40 Cloudy with Nearby Thunderstorms 66 18.9 59 15 78 78 ENE 10 17 29.9 1013 10 16.0934 0.01 0.254
6:49 am 06:49 Cloudy with Light Rain 66 19 59 15 78 78 NE 6 9 29.92 1013 10 16.0934 0.02 0.508
6:54 am 06:54 Cloudy with Nearby Thunderstorms 65 18.3 59 15 81 81 N 7 11 29.93 1014 10 16.0934 0.02 0.508
7:16 am 07:16 Cloudy with Light Rain 65 18.3 60 15.6 84 84 N 3 6 29.95 1014 10 16.0934 0.01 0.254
7:54 am 07:54 Cloudy with Light Rain 64 17.8 60 15.6 87 87 NNE 9 15 29.92 1013 10 16.0934 0.06 1.524
8:04 am 08:04 Cloudy with Light Rain 64 17.8 60 15.6 87 87 N 8 13 29.93 1013 10 16.0934 0.001 0.001
8:54 am 08:54 Cloudy 65 18.3 60 15.6 84 84 NNE 9 15 29.95 1014 10 16.0934 0.001 0.001
9:54 am 09:54 Cloudy 67 19.4 61 16.1 81 81 NNW 8 13 30 1016 10 16.0934 0 0
10:54 am 10:54 Cloudy 68 20 61 16.1 78 78 N 12 19 30.01 1016 10 16.0934 0 0
11:54 am 11:54 Cloudy 68 20 62 16.7 81 81 NNW 13 20 30.03 1017 10 16.0934 0 0
12:09 pm 12:09 Cloudy 70 21.1 63 17.2 79 79 N 9 15 30.02 1017 10 16.0934 0 0
12:18 pm 12:18 Cloudy 70 21.1 63 17.2 79 79 N 9 15 30.03 1017 10 16.0934 0 0
12:54 pm 12:54 Cloudy 71 21.7 63 17.2 76 76 N 10 17 30.06 1018 10 16.0934 0 0
1:23 pm 13:23 Cloudy 73 22.8 63 17.2 71 71 N 9 15 30.02 1017 10 16.0934 0 0
1:54 pm 13:54 Cloudy 74 23.3 64 17.8 71 71 NE 7 11 29.99 1016 10 16.0934 0 0
2:45 pm 14:45 Partly Cloudy 78 25.6 66 18.9 67 67 VRB 6 9 29.95 1014 10 16.0934 0 0
2:54 pm 14:54 Mostly Cloudy 75 23.9 64 17.8 69 69 VRB 3 6 29.98 1015 10 16.0934 0 0
3:03 pm 15:03 Partly Cloudy 77 25 64 17.8 64 64 WSW 3 6 29.96 1014 10 16.0934 0 0
3:54 pm 15:54 Mostly Cloudy 77 25 65 18.3 66 66 W 5 7 29.98 1015 10 16.0934 0 0
4:45 pm 16:45 Cloudy 77 25 65 18.3 66 66 W 5 7 29.96 1014 10 16.0934 0 0
4:54 pm 16:54 Cloudy 78 25.6 65 18.3 64 64 Calm 29.98 1015 10 16.0934 0 0
5:54 pm 17:54 Cloudy 78 25.6 67 19.4 69 69 NNE 6 9 29.98 1015 10 16.0934 0 0
6:54 pm 18:54 Cloudy 78 25.6 67 19.4 69 69 N 6 9 29.97 1015 10 16.0934 0 0
7:54 pm 19:54 Sunny 78 25.6 67 19.4 69 69 NE 5 7 29.97 1015 10 16.0934 0 0
8:54 pm 20:54 Sunny 74 23.3 65 18.3 74 74 NNE 5 7 29.98 1015 10 16.0934 0 0
9:54 pm 21:54 Partly Cloudy 71 21.7 65 18.3 81 81 NE 8 13 29.99 1016 10 16.0934 0 0
10:54 pm 22:54 Partly Cloudy 70 21.1 65 18.3 84 84 Calm 30.03 1017 10 16.0934 0 0
11:54 pm 23:54 Clear 70 21.1 65 18.3 84 84 Calm 30.04 1017 10 16.0934 0 0

Powered by AerisWeather